Weather in Sandata

Russia / Rostov Oblast     46°15′55″N   41°45′44″E
temp.,
°C
wind,
m/s
gust,
m/s
humid.,
%
clouds,
%
prec.,
mm/h
press.,
hPa
HPBL,
m
4 march, thu
thu400:000w410830 0.0 1024287
03:00−1w48877 0.0 1025214
06:00−1wsw36880 0.0 1026151
09:00+2wsw57670 0.0 1025569
12:00+6wsw68450 0.0 10241071
15:00+7wsw710490 0.0 10211293
18:00+4wsw49660 0.0 1020188
21:00+2sw513820 0.0 1020381
5 march, fri
fri500:00+2wsw616823 0.0 1019630
03:00+1wsw6168035 0.0 1019626
06:00+1sw6168330 0.0 1018620
09:00+4wsw8166715 0.0 1018830
12:00+9wsw812476 0.0 10171094
15:00+10wsw7114747 0.0 10161148
18:00+7sw346288 0.0 101668
21:00+5wsw4126561 0.0 1017319
6 march, sat
sat600:00+3ssw357932 0.0 1017101
03:00+2ssw347357 0.0 101663
06:00+2ssw477885 0.0 1015158
09:00+6sw6185592 0.0 1014871
12:00+12wsw10155399 0.0 10131340
15:00+13wsw101556100 0.0 10111844
18:00+8wnw71379100 0.8 1012991
21:00+2nw71195100 1.6 1016709
7 march, sun
sun700:00+1nw81291100 0.6 1019833
03:00−2wnw71063100 0.7 1022969
06:00−2wnw610590 0.0 10241126
09:00−1wnw79460 0.0 10261435
12:00+2wnw67390 0.0 10261540
15:00+3w67390 0.0 10241604
18:000wsw37530 0.0 1023215
21:00−1wsw410580 0.0 1023426
8 march, mon
mon800:00−2sw411650 0.0 1022566
03:00−1wsw513630 0.0 1021578
06:00−1sw613681 0.0 1020476
09:00+2wsw812631 0.0 10201234
12:00+5wsw8115064 0.0 10181461
15:00+6wsw8115162 0.0 10171575
18:00+3wsw4106593 0.0 1017300
21:00+1sw477769 0.0 1018163